Temp
-3 -3 -3 -5 -6 -7 -6 -7 -6 -7 -7 -7 -7 -7 -7 -7 -7 -5 -6 -6 -5 -5 -6 -6 -6 -6 -6 -7 -7 -7 -7 -7 -7 -7 -7 -7 -7 -7 -7 -7 -7 -7 -7 -7
-3 -3 -4 -6 -7 -7 -6 -7 -7 -8 -7 -8 -7 -8 -7 -7 -7 -6 -7 -7 -7 -6 -6 -6 -6 -6 -6 -7 -7 -7 -7 -7 -7 -7 -7 -7 -7 -7 -7 -7 -7 -7 -7 -7
-2 -3 -5 -5 -6 -7 -7 -7 -7 -7 -8 -8 -8 -8 -7 -7 -7 -7 -8 -7 -7 -6 -6 -6 -6 -6 -6 -7 -7 -7 -7 -7 -7 -7 -7 -7 -7 -7 -7 -7 -7 -7 -7 -7
-2 -3 -5 -5 -6 -7 -7 -7 -7 -8 -8 -7 -7 -7 -7 -7 -7 -7 -8 -7 -6 -7 -6 -6 -6 -7 -7 -7 -7 -7 -7 -7 -7 -7 -7 -7 -7 -7 -7 -7 -7 -7 -7 -7
-2 -3 -5 -5 -6 -7 -7 -8 -8 -8 -8 -7 -7 -7 -7 -7 -7 -7 -7 -7 -7 -7 -7 -7 -7 -7 -7 -7 -7 -7 -7 -7 -7 -7 -7 -7 -7 -7 -8 -7 -7 -7 -7 -7
-3 -4 -6 -6 -6 -8 -7 -8 -8 -8 -7 -8 -7 -7 -7 -6 -7 -7 -7 -7 -8 -8 -7 -7 -7 -7 -7 -7 -7 -7 -7 -7 -7 -7 -7 -8 -7 -8 -8 -8 -7 -7 -8 -8
-4 -4 -6 -6 -7 -8 -7 -8 -8 -7 -7 -7 -7 -7 -6 -6 -7 -7 -7 -7 -7 -8 -7 -8 -8 -8 -8 -8 -8 -7 -7 -7 -7 -7 -7 -8 -8 -9 -8 -8 -8 -8 -8 -8
-3 -4 -6 -6 -5 -7 -7 -8 -8 -8 -7 -7 -7 -7 -4 -7 -7 -7 -7 -7 -7 -8 -8 -8 -8 -8 -8 -8 -8 -7 -7 -8 -8 -7 -8 -8 -8 -8 -8 -8 -8 -8 -8 -8
-4 -4 -5 -7 -7 -7 -8 -7 -7 -7 -8 -8 -7 -7 -7 -7 -7 -7 -7 -7 -7 -7 -8 -8 -8 -9 -9 -9 -9 -8 -8 -8 -8 -8 -8 -8 -8 -8 -8 -8 -8 -8 -8 -8
-6 -5 -5 -6 -7 -8 -8 -7 -8 -7 -7 -7 -7 -7 -7 -7 -7 -7 -7 -7 -7 -8 -8 -8 -7 -8 -9 -8 -8 -8 -8 -8 -8 -8 -8 -8 -8 -8 -8 -8 -8 -8 -8 -8
-7 -6 -6 -6 -6 -6 -7 -7 -7 -7 -7 -7 -6 -6 -7 -7 -7 -7 -7 -7 -8 -8 -8 -8 -7 -8 -8 -9 -9 -8 -8 -8 -8 -8 -8 -8 -9 -9 -9 -8 -8 -8 -8 -9
-9 -8 -7 -6 -6 -6 -8 -7 -7 -8 -6 -7 -7 -6 -7 -7 -7 -7 -7 -8 -8 -8 -7 -8 -8 -8 -8 -8 -8 -8 -8 -8 -9 -9 -9 -9 -9 -9 -9 -9 -9 -8 -9 -9
-9 -8 -7 -8 -7 -7 -7 -7 -7 -8 -7 -8 -7 -7 -6 -7 -7 -7 -8 -7 -7 -7 -7 -7 -7 -8 -7 -8 -8 -8 -8 -8 -8 -8 -9 -9 -9 -10 -10 -9 -9 -9 -9 -9
-10 -8 -8 -6 -6 -7 -7 -8 -8 -8 -8 -7 -7 -7 -7 -7 -7 -7 -7 -7 -7 -7 -7 -7 -8 -8 -8 -8 -8 -8 -8 -8 -8 -8 -8 -9 -9 -10 -10 -9 -9 -10 -9 -9
-10 -10 -9 -7 -7 -8 -8 -8 -8 -8 -8 -8 -7 -8 -7 -8 -7 -7 -8 -8 -7 -6 -7 -8 -8 -8 -8 -8 -8 -8 -8 -8 -8 -8 -8 -9 -10 -10 -10 -10 -10 -10 -10 -10
-9 -9 -9 -8 -8 -8 -8 -8 -8 -8 -8 -8 -8 -7 -8 -8 -8 -8 -8 -8 -7 -6 -7 -9 -8 -8 -8 -8 -8 -8 -8 -8 -8 -7 -8 -10 -11 -11 -11 -10 -10 -10 -10 -11
-9 -9 -9 -9 -8 -8 -8 -8 -8 -8 -8 -8 -8 -7 -8 -8 -8 -8 -8 -8 -8 -8 -8 -8 -8 -9 -9 -8 -8 -9 -8 -8 -8 -8 -8 -10 -9 -10 -10 -10 -10 -11 -11 -11
-9 -9 -9 -9 -8 -8 -10 -8 -8 -8 -8 -8 -8 -8 -8 -8 -8 -8 -8 -8 -8 -8 -9 -8 -9 -9 -9 -9 -9 -9 -9 -9 -8 -8 -9 -10 -11 -11 -10 -10 -10 -11 -12 -12
-9 -9 -9 -9 -9 -8 -10 -9 -9 -8 -8 -8 -8 -8 -8 -8 -8 -8 -8 -8 -9 -9 -9 -9 -9 -9 -9 -9 -9 -9 -9 -9 -9 -8 -8 -9 -10 -10 -10 -10 -11 -12 -12 -12
-10 -9 -9 -9 -9 -9 -10 -9 -9 -9 -8 -9 -8 -9 -9 -8 -8 -8 -8 -8 -9 -9 -9 -9 -9 -10 -9 -9 -9 -9 -9 -9 -9 -9 -9 -9 -10 -10 -11 -11 -11 -12 -11 -12
-10 -9 -9 -9 -9 -9 -9 -10 -9 -9 -8 -8 -8 -9 -8 -8 -8 -8 -8 -8 -9 -9 -10 -9 -9 -10 -9 -9 -10 -10 -10 -10 -9 -9 -9 -10 -10 -11 -11 -11 -12 -11 -12 -12
-10 -10 -9 -9 -9 -9 -9 -9 -10 -10 -9 -9 -9 -9 -9 -9 -9 -9 -9 -9 -9 -9 -9 -9 -9 -9 -10 -9 -9 -11 -9 -9 -9 -10 -10 -10 -11 -11 -11 -11 -12 -12 -12 -11
-11 -10 -10 -11 -10 -10 -10 -9 -10 -10 -9 -9 -9 -9 -9 -9 -9 -9 -9 -9 -10 -10 -10 -9 -9 -10 -11 -11 -9 -10 -10 -9 -10 -10 -10 -10 -11 -11 -11 -11 -12 -11 -13 -12
-11 -11 -11 -11 -10 -10 -10 -10 -10 -10 -10 -9 -9 -9 -10 -10 -10 -10 -10 -11 -10 -10 -11 -11 -11 -10 -11 -10 -9 -10 -9 -10 -11 -11 -11 -11 -11 -11 -11 -11 -11 -12 -12 -13
-12 -12 -11 -11 -11 -11 -10 -10 -10 -11 -10 -10 -10 -10 -10 -10 -11 -10 -11 -11 -10 -11 -11 -11 -10 -11 -10 -10 -10 -10 -10 -11 -11 -11 -11 -11 -11 -11 -11 -11 -11 -12 -12 -12
-13 -13 -13 -11 -11 -11 -11 -11 -10 -11 -11 -10 -11 -10 -11 -12 -11 -11 -11 -10 -11 -11 -10 -10 -10 -11 -11 -11 -10 -11 -8 -11 -11 -11 -11 -11 -11 -13 -13 -11 -12 -13 -13 -14
Height
5878 5881 5884 5890 5893 5892 5896 5898 5905 5908 5909 5910 5912 5913 5913 5911 5911 5909 5910 5909 5910 5911 5912 5911 5911 5911 5912 5912 5912 5913 5913 5914 5915 5915 5914 5913 5911 5911 5911 5910 5909 5907 5905 5904
5875 5878 5886 5888 5891 5892 5892 5894 5899 5903 5907 5908 5910 5911 5913 5911 5910 5909 5909 5909 5910 5910 5911 5912 5912 5910 5910 5911 5911 5912 5912 5913 5913 5913 5912 5911 5910 5909 5908 5907 5905 5904 5902 5900
5872 5880 5880 5884 5887 5889 5891 5895 5900 5902 5902 5905 5906 5907 5911 5910 5911 5909 5910 5911 5911 5911 5911 5911 5912 5910 5909 5910 5910 5912 5912 5911 5910 5911 5910 5909 5908 5907 5905 5904 5902 5900 5899 5897
5866 5873 5874 5877 5882 5887 5890 5895 5899 5898 5897 5899 5903 5903 5907 5909 5909 5910 5909 5909 5908 5908 5908 5909 5909 5909 5909 5908 5908 5909 5908 5908 5908 5908 5908 5907 5906 5904 5902 5901 5898 5897 5895 5894
5858 5865 5869 5871 5879 5883 5890 5894 5896 5896 5894 5894 5896 5898 5904 5905 5906 5908 5908 5907 5906 5904 5904 5905 5905 5905 5907 5907 5907 5906 5905 5904 5905 5905 5904 5903 5901 5900 5898 5897 5895 5893 5891 5889
5852 5858 5863 5869 5877 5879 5889 5888 5889 5889 5889 5884 5892 5895 5896 5900 5903 5905 5905 5904 5904 5902 5901 5900 5899 5900 5902 5904 5903 5902 5901 5901 5901 5902 5901 5899 5897 5896 5895 5893 5891 5889 5887 5884
5842 5847 5855 5862 5868 5874 5878 5882 5882 5882 5880 5879 5888 5889 5892 5897 5898 5901 5902 5901 5901 5899 5896 5896 5897 5898 5898 5900 5899 5898 5898 5898 5898 5897 5897 5896 5894 5892 5890 5888 5885 5883 5881 5878
5834 5839 5845 5852 5857 5865 5871 5876 5876 5876 5877 5880 5881 5878 5889 5893 5894 5897 5898 5898 5897 5896 5894 5893 5893 5894 5894 5893 5893 5894 5895 5895 5893 5891 5891 5890 5889 5889 5886 5883 5880 5878 5875 5872
5825 5833 5842 5843 5853 5860 5864 5865 5874 5872 5872 5874 5875 5877 5882 5887 5890 5892 5894 5894 5894 5892 5891 5893 5891 5889 5889 5888 5888 5890 5890 5889 5888 5886 5884 5884 5884 5882 5881 5878 5875 5872 5870 5868
5820 5827 5835 5841 5846 5850 5853 5864 5864 5864 5865 5866 5869 5872 5876 5882 5886 5886 5887 5889 5889 5889 5889 5889 5887 5885 5885 5885 5885 5886 5885 5884 5883 5881 5879 5879 5878 5876 5873 5871 5869 5867 5865 5864
5810 5816 5829 5832 5832 5841 5847 5850 5855 5859 5860 5860 5863 5865 5873 5875 5880 5881 5884 5885 5886 5886 5886 5885 5885 5882 5882 5883 5883 5881 5880 5878 5877 5876 5875 5875 5873 5869 5866 5864 5862 5861 5860 5857
5797 5806 5815 5821 5830 5836 5840 5845 5850 5850 5853 5855 5857 5861 5868 5872 5873 5876 5879 5881 5882 5882 5883 5881 5881 5881 5879 5880 5880 5878 5876 5873 5872 5870 5869 5868 5866 5861 5859 5857 5856 5856 5855 5851
5789 5793 5804 5811 5820 5824 5828 5836 5842 5846 5849 5849 5853 5858 5863 5866 5867 5870 5872 5874 5876 5877 5877 5878 5876 5877 5876 5877 5877 5875 5872 5870 5868 5865 5863 5860 5857 5854 5852 5851 5849 5847 5845 5842
5785 5788 5794 5801 5812 5819 5824 5830 5836 5838 5842 5845 5847 5852 5855 5858 5861 5864 5867 5868 5870 5870 5871 5872 5872 5873 5871 5871 5870 5869 5868 5865 5863 5860 5856 5852 5849 5848 5845 5844 5841 5839 5837 5833
5777 5782 5788 5799 5807 5814 5820 5825 5830 5831 5837 5839 5844 5846 5849 5852 5855 5858 5859 5861 5863 5865 5865 5865 5865 5866 5865 5865 5864 5862 5861 5858 5856 5852 5847 5845 5842 5841 5838 5836 5833 5831 5828 5826
5772 5777 5784 5790 5801 5809 5814 5819 5822 5826 5831 5834 5837 5839 5844 5846 5848 5850 5851 5853 5854 5855 5855 5856 5855 5857 5858 5857 5856 5853 5852 5849 5846 5842 5839 5833 5832 5830 5831 5828 5824 5821 5820 5817
5767 5773 5777 5782 5793 5802 5804 5810 5814 5819 5824 5828 5829 5835 5838 5839 5840 5843 5846 5847 5847 5848 5850 5851 5850 5850 5850 5850 5849 5848 5845 5840 5837 5835 5828 5825 5827 5821 5821 5819 5814 5812 5810 5808
5758 5766 5772 5777 5785 5788 5797 5803 5807 5811 5817 5821 5822 5827 5830 5833 5835 5837 5838 5840 5841 5842 5844 5844 5843 5843 5842 5843 5843 5840 5837 5835 5832 5828 5820 5811 5809 5810 5813 5810 5806 5803 5801 5799
5752 5759 5764 5769 5776 5784 5789 5795 5800 5804 5806 5811 5816 5821 5826 5828 5830 5831 5833 5835 5836 5836 5837 5837 5836 5834 5835 5835 5833 5830 5828 5827 5824 5821 5816 5809 5804 5805 5803 5800 5796 5793 5791 5788
5747 5751 5758 5765 5770 5774 5779 5785 5791 5794 5799 5802 5807 5811 5816 5818 5822 5825 5826 5829 5829 5829 5830 5828 5826 5827 5827 5824 5822 5819 5816 5815 5813 5810 5808 5804 5799 5797 5797 5791 5786 5783 5777 5775
5741 5745 5750 5758 5764 5768 5772 5779 5784 5789 5794 5796 5803 5805 5811 5813 5815 5818 5819 5818 5820 5820 5819 5816 5816 5816 5815 5812 5809 5809 5806 5803 5799 5798 5797 5794 5793 5791 5785 5779 5776 5771 5761 5760
5730 5736 5742 5750 5757 5761 5767 5771 5778 5782 5783 5789 5795 5798 5799 5802 5806 5808 5810 5811 5810 5808 5808 5805 5807 5807 5803 5801 5801 5797 5798 5795 5792 5788 5786 5784 5781 5777 5771 5766 5763 5761 5760 5751
5723 5729 5735 5740 5746 5750 5759 5763 5769 5775 5781 5785 5786 5787 5789 5792 5795 5798 5800 5798 5796 5798 5795 5799 5796 5796 5795 5792 5793 5786 5786 5784 5782 5779 5776 5772 5771 5766 5761 5757 5753 5752 5748 5748
5714 5723 5727 5736 5739 5747 5752 5757 5762 5766 5769 5772 5776 5778 5781 5784 5787 5787 5784 5784 5784 5785 5784 5786 5787 5781 5781 5782 5778 5772 5770 5770 5767 5764 5761 5757 5756 5755 5751 5750 5743 5743 5740 5737
5707 5708 5715 5725 5729 5738 5742 5746 5751 5755 5757 5761 5764 5767 5768 5770 5771 5772 5770 5772 5768 5771 5770 5774 5770 5769 5769 5766 5763 5760 5758 5753 5752 5749 5748 5749 5747 5744 5734 5739 5735 5734 5730 5725
5702 5709 5713 5716 5723 5729 5731 5736 5741 5742 5746 5749 5753 5755 5756 5754 5757 5757 5760 5760 5758 5758 5758 5756 5755 5754 5753 5752 5752 5752 5737 5736 5742 5741 5741 5740 5735 5733 5732 5729 5726 5724 5719 5715
Wind_Speed
30 29 24 25 25 26 17 14 16 7 5 6 10 8 6 15 12 7 1 5 6 5 5 3 5 6 6 6 5 6 6 5 3 2 1 2 3 4 4 4 4 5 5 7
32 25 24 29 29 33 25 22 15 12 4 6 4 10 7 11 13 7 5 4 5 7 7 7 7 6 8 8 6 5 4 3 2 2 4 5 5 6 7 8 9 10 10 11
25 22 33 31 26 34 28 24 17 8 9 15 12 16 5 10 14 9 13 7 8 8 13 12 8 7 8 9 8 7 6 4 4 7 9 10 9 9 10 11 12 14 15 15
31 30 38 37 29 30 33 26 20 22 19 17 20 22 13 8 11 3 10 8 6 7 7 13 13 11 11 11 11 10 8 8 8 11 13 13 13 13 15 16 16 18 19 21
37 33 39 40 32 31 35 26 25 26 22 18 23 27 16 16 12 8 7 7 10 12 14 14 15 17 16 16 14 14 13 13 14 15 17 18 19 19 19 21 21 22 22 23
42 37 41 43 35 39 33 33 35 30 26 30 23 24 20 14 7 14 12 13 13 11 14 16 14 18 20 21 19 16 16 18 19 21 21 24 28 24 24 25 24 22 22 23
48 46 45 46 45 44 42 41 39 38 36 33 28 29 15 3 7 10 10 13 11 9 10 14 15 12 15 20 24 24 22 24 25 26 24 22 22 23 25 25 23 22 23 23
52 52 49 50 47 46 44 47 45 39 31 31 32 35 9 6 5 7 10 14 10 6 11 10 24 27 25 21 22 23 19 18 23 22 18 18 19 20 22 23 22 22 23 24
56 53 51 53 48 45 49 56 46 43 37 36 34 35 29 18 17 18 13 12 7 9 11 14 11 15 20 22 21 19 17 17 17 17 16 18 18 19 21 21 23 23 23 25
52 53 50 48 51 51 54 52 50 51 45 45 45 45 39 34 22 17 15 15 11 11 12 13 9 12 11 12 14 15 17 18 19 20 21 23 24 27 24 23 24 23 24 27
47 53 49 50 54 51 55 53 54 48 45 40 37 35 32 35 29 16 18 18 12 12 12 16 14 5 6 5 11 18 21 21 21 24 28 27 29 30 28 27 27 25 27 29
39 47 46 51 49 50 54 49 48 42 35 33 33 32 31 28 24 17 21 17 13 14 12 11 11 6 3 5 6 11 16 23 27 30 32 32 31 32 32 32 32 30 29 29
33 44 48 46 49 50 53 46 39 28 32 34 31 29 26 33 31 24 24 23 23 22 14 10 8 9 7 7 14 17 20 20 21 26 29 31 32 33 33 33 33 33 33 31
29 30 46 52 46 48 49 43 36 29 37 37 34 30 27 24 32 28 24 20 18 12 13 9 14 11 8 15 19 19 25 26 29 29 29 31 32 31 33 33 34 36 36 33
38 28 23 43 44 50 42 41 34 30 27 30 28 31 28 29 27 21 23 20 14 13 15 14 21 19 21 21 20 22 28 31 33 32 34 31 35 33 33 36 38 41 40 38
36 37 22 31 41 48 45 41 37 34 29 25 25 27 23 24 24 27 29 23 16 16 20 26 31 28 27 28 28 30 34 33 33 34 33 37 35 32 35 40 39 43 41 40
39 38 38 31 42 48 47 38 40 44 44 30 32 25 21 30 28 28 24 22 24 24 24 31 35 38 38 36 33 29 34 31 30 33 40 37 38 33 35 39 44 46 42 42
39 39 38 33 43 52 40 35 34 38 45 45 42 37 34 29 22 21 17 23 26 28 29 33 38 40 44 44 37 31 33 37 42 44 39 48 39 29 39 42 43 43 43 44
40 38 39 39 40 44 46 38 30 31 41 54 41 36 32 19 22 24 28 31 32 33 33 37 40 46 47 46 40 33 34 38 38 39 38 36 39 39 41 44 45 45 47 42
36 38 41 41 41 43 52 44 37 37 39 48 49 34 31 27 27 22 29 36 34 37 37 43 44 44 44 42 42 34 44 41 39 40 41 43 41 39 44 46 47 49 57 48
40 43 39 45 45 45 44 34 32 36 39 40 43 32 36 37 35 29 31 38 39 39 41 48 47 47 46 50 44 33 42 42 43 43 41 41 40 42 46 44 43 43 53 43
46 40 44 40 52 51 41 44 48 45 37 40 43 45 45 43 40 32 36 40 46 48 53 57 51 50 59 57 46 37 37 38 43 43 40 41 42 42 47 49 36 41 42 35
45 46 39 36 50 55 55 40 37 36 37 43 45 46 48 48 44 41 46 47 48 49 51 47 55 58 50 42 41 38 42 44 43 42 42 41 37 40 39 47 34 28 52 44
53 48 37 40 39 45 43 45 50 50 49 51 51 48 46 47 50 51 55 41 45 45 47 45 51 48 42 53 49 47 53 48 44 44 32 38 41 40 43 40 27 50 49 43
50 51 46 40 47 46 46 44 42 36 41 43 42 41 47 47 50 52 50 50 46 39 45 47 50 48 52 45 45 50 50 41 47 33 36 40 43 43 35 47 46 49 56 57
42 41 36 40 51 49 61 50 43 46 44 52 50 52 50 27 36 38 47 40 37 35 29 30 35 43 47 46 45 45 35 41 43 45 42 42 34 31 43 46 54 56 59 58
Wind_Direction
222 223 221 216 216 234 220 195 150 183 119 73 19 338 8 5 349 321 300 262 248 271 259 215 194 183 163 155 142 134 134 118 121 94 57 339 317 306 314 332 333 335 330 326
223 218 216 215 212 216 225 205 168 191 177 237 281 299 344 343 343 318 299 298 251 249 251 249 219 195 172 165 165 169 150 165 229 307 335 333 322 313 311 309 312 318 319 318
225 214 215 215 215 209 222 208 181 203 240 259 248 251 350 323 327 293 342 312 269 271 275 238 248 236 198 188 188 204 209 227 282 300 310 310 311 311 309 310 310 314 316 317
214 209 213 214 210 215 217 201 189 227 236 260 277 275 276 299 302 243 313 334 278 289 279 249 240 242 235 214 217 225 235 251 268 278 288 294 301 305 306 302 304 310 315 316
211 205 212 217 212 209 204 195 207 221 245 253 262 262 256 254 268 314 299 310 323 301 274 286 255 239 240 238 229 238 246 256 263 268 280 291 297 300 299 298 299 303 309 311
211 208 206 219 211 204 200 202 209 216 229 247 249 251 256 254 269 291 297 289 315 294 280 290 256 240 239 246 243 240 252 262 268 273 284 292 288 293 291 289 290 297 306 310
210 206 208 210 213 204 208 202 213 218 221 242 245 243 242 283 347 304 276 272 298 297 298 264 247 230 253 253 251 256 262 271 278 279 283 281 279 284 288 288 292 302 305 307
216 209 205 211 216 205 208 203 215 223 233 243 247 246 206 263 273 242 239 269 292 314 343 316 255 251 256 259 267 268 273 280 280 283 287 287 279 278 285 290 297 301 306 312
219 215 209 211 212 207 209 208 214 223 227 239 249 251 247 251 244 259 252 260 280 281 329 323 302 236 236 247 264 278 286 287 284 294 300 298 299 296 295 298 300 302 305 307
224 221 216 215 210 207 210 211 215 223 231 234 239 241 243 244 233 249 242 258 274 296 330 328 297 230 227 251 270 281 286 291 294 298 297 299 304 296 295 298 301 301 302 302
229 224 215 214 216 213 214 216 219 226 235 244 252 233 230 234 237 252 250 261 266 269 307 313 320 262 238 273 292 291 289 285 285 285 284 288 292 297 299 298 298 298 297 292
223 227 214 220 221 218 216 220 221 226 235 243 241 236 233 237 242 232 245 258 256 270 294 308 318 289 250 353 312 326 309 288 278 277 282 289 292 294 295 293 293 293 294 293
219 222 217 213 213 217 216 219 217 226 236 241 238 243 243 242 251 244 248 256 270 284 306 291 300 273 308 316 333 322 324 321 302 287 282 281 282 285 283 285 289 293 296 298
218 233 227 215 213 212 211 215 216 224 239 235 242 251 256 253 246 258 262 271 266 279 285 289 295 297 294 297 322 324 330 323 317 302 290 280 278 276 279 286 288 291 294 297
218 224 223 219 208 210 215 222 217 221 235 236 247 252 253 253 245 259 265 256 250 246 254 272 292 291 305 304 304 304 317 322 311 302 294 282 273 275 277 283 284 289 292 296
209 216 205 212 203 207 213 216 220 220 229 245 248 243 229 246 253 253 257 264 289 304 309 311 307 307 302 301 311 312 315 313 307 300 296 281 261 267 278 285 284 286 289 295
215 218 213 210 200 204 214 220 222 224 225 238 245 235 243 252 261 252 260 275 286 294 298 296 298 298 301 304 306 304 318 307 311 311 294 275 285 282 284 278 278 286 288 292
212 219 213 209 204 217 216 217 220 222 227 229 240 236 229 241 251 253 269 271 278 284 286 285 287 289 292 298 302 305 307 304 301 306 295 272 251 281 281 283 285 286 287 288
203 208 210 214 205 222 220 220 232 226 225 228 236 233 240 225 237 239 252 266 270 273 273 277 279 280 286 291 286 289 293 302 297 297 295 291 281 287 286 285 284 283 282 282
209 207 212 212 215 228 229 217 231 233 241 223 227 213 222 227 244 251 247 253 260 265 264 263 265 274 282 285 278 287 296 298 300 292 293 291 280 281 281 283 285 290 283 276
205 208 210 212 220 225 222 206 227 235 239 245 245 258 243 256 264 257 247 250 254 254 252 255 263 269 272 278 264 291 297 295 298 298 296 287 277 277 280 283 289 320 296 272
203 203 205 208 220 223 228 234 234 237 241 245 248 252 260 266 266 255 246 249 255 251 253 256 273 283 274 278 272 292 288 289 295 295 289 282 273 276 274 278 287 308 315 267
201 207 204 210 210 218 215 209 225 230 241 250 256 262 266 268 266 256 251 256 247 274 266 271 275 265 297 281 272 289 285 293 298 289 282 283 276 278 280 289 280 301 312 303
238 214 211 204 210 216 220 225 237 237 242 247 252 259 261 265 265 262 264 255 261 268 273 278 283 288 272 293 289 289 290 293 294 286 267 273 289 286 270 287 283 303 299 292
246 248 217 224 223 217 218 218 223 227 233 239 244 246 249 252 254 251 251 259 257 272 278 273 278 276 279 283 286 287 288 288 293 275 307 305 291 276 273 308 283 294 295 302
225 228 243 240 234 238 221 230 240 236 240 245 248 248 256 262 259 271 266 278 284 289 291 282 287 273 275 280 282 282 278 295 294 295 298 299 291 287 299 294 295 296 297 297